Regional Weather Roundup
Issued by NWS Midland/Odessa, TX

Home | Current Version | Previous Version | Text Only | Print | Product List | Glossary On
Versions: 1 2 3 4 5 6 7 8 9 10 11 12 13 14 15 16 17 18 19 20 21 22 23 24 25 26 27 28 29 30 31 32 33 34 35 36 37 38 39 40 41 42 43 44 45 46 47 48 49 50
000
ASUS44 KMAF 170410
RWRMAF
MIDLAND AREA WEATHER ROUNDUP
NATIONAL WEATHER SERVICE MIDLAND TX
1100 PM CDT WED AUG 16 2017

...IN SOUTHWEST TEXAS AND SOUTHEAST NEW MEXICO...

CITY           SKY/WX    TMP DP  RH WIND       PRES   REMARKS
ALPINE         CLEAR     72  55  55 SW6       30.17R
ANDREWS        FAIR      77  66  69 SE8       30.03R
ARTESIA        CLEAR     79  54  41 SW10      30.02R
BIG SPRING     CLOUDY    75  66  72 E8        30.03R
CARLSBAD       CLEAR     77  62  59 CALM      29.99R
DRYDEN           N/A     80  70  71 CALM      29.95R
FORT STOCKTON  PTCLDY    81  59  47 S10       29.99R
GUAD PASS      CLEAR     76  47  35 NE12      30.20R
HOBBS          CLEAR     73  55  53 E8        30.04R
MARFA          MOCLDY    69  60  73 N6        30.16R
MIDLAND AIRPK  CLOUDY    84  67  55 E6        30.02R
MIDLAND INTL   CLOUDY    83  65  54 E10       30.01R
ODESSA         CLOUDY    81  67  62 E7        30.01R
PECOS          CLEAR     83  54  36 NE5       29.94R
PRESIDIO       FAIR      83  61  46 N6        30.01S
SEMINOLE       CLOUDY    73  55  52 SE5       30.04R
SNYDER         CLOUDY    73  66  77 SE9       30.02R THUNDER
WINK           CLEAR     85  63  47 E10       29.96R
$$
...OTHER STATIONS IN TEXAS...

CITY           SKY/WX    TMP DP  RH WIND       PRES   REMARKS
ABILENE        CLOUDY    79  68  69 S10       29.94R
AMARILLO       CLEAR     70  58  65 NE7       30.07R
AUSTIN         CLEAR     85  74  69 S13       29.93S
BROWNSVILLE    CLOUDY    84  80  88 S15       29.98R
CORPUS CHRISTI PTCLDY    84  80  88 SE16      29.95R
DALLAS FTW     PTCLDY    88  70  55 S9        29.87R
DEL RIO        MOCLDY    82  72  71 CALM      29.88R
EL PASO        PTCLDY    84  52  33 S3        30.04R
HOUSTON INT    PTCLDY    85  77  77 S8        29.98R
LUBBOCK        PTCLDY    73  67  81 N8        30.02R
SAN ANGELO     PTCLDY    84  70  62 SE5       29.96R
SAN ANTONIO    PTCLDY    84  73  69 SE14      29.95S
WACO           CLEAR     89  71  55 S20       29.91R
WICHITA FALLS  NOT AVBL
$$
...OTHER LOCATIONS IN NEW MEXICO...

CITY           SKY/WX    TMP DP  RH WIND       PRES   REMARKS
ALAMOGORDO     CLEAR     75  46  35 SE6       30.07R
ALBUQUERQUE    PTCLDY    77  39  25 S12       30.12R
CANNON AFB     CLEAR     70  64  79 E9        30.11R
CLOVIS         NOT AVBL
HOLLOMAN AFB   CLEAR     79  47  32 SE6       30.07R
ROSWELL        CLEAR     78  53  41 S9        30.00R
RUIDOSO        CLEAR     66  41  39 SW8       30.28R
SANTA FE       CLEAR     68  29  23 CALM      30.19R
TRUTH OR CONSE CLEAR     82  37  20 S13       30.09R
TUCUMCARI      CLEAR     70  56  61 E5        30.06R
$$




USA.gov is the U.S. government's official web portal to all federal, state and local government web resources and services.